Skip Page Navigation
NASA JPL Caltech
NASA Logo - Jet Propulsion Laboratory + View the NASA Portal
+ Center for Near-Earth Object Studies
JPL Home Earth Solar System Stars & Galaxies Technology
JPL Solar System Dynamics
BODIES ORBITS EPHEMERIDES TOOLS PHYSICAL DATA DISCOVERY FAQ SITE MAP
JPL Small-Body Database Browser
Search: [ help ]  
(2000 YA)
Classification: Apollo [NEO]          SPK-ID: 3057549
Ephemeris | Orbit Diagram | Orbital Elements | Mission Design | Physical Parameters | Close-Approach Data ]

[ hide orbit diagram ]

For accurate long-term ephemerides, please instead use our Horizons system.This orbit viewer was implemented using two-body methods, and hence should not be used for determining accurate long-term trajectories (over several years or decades) or planetary encounter circumstances.


Orbital Elements at Epoch 2459200.5 (2020-Dec-17.0) TDB
Reference: JPL 53 (heliocentric ecliptic J2000)
 Element Value Uncertainty (1-sigma)   Units 
e .6473071504577949 1.4987e-08  
a 2.387736024265207 3.4794e-08 au
q .842137422352672 3.291e-08 au
i 2.672918770620122 5.399e-06 deg
node 84.54400376939935 1.84e-05 deg
peri 59.40784817451159 2.0788e-05 deg
M 147.0826687425547 1.7734e-05 deg
tp 2458649.899127731478
(2019-Jun-15.39912773)
5.4395e-05 TDB
period 1347.652416911301
3.69
2.9457e-05
8.065e-08
d
yr
n .26713119457396 5.839e-09 deg/d
Q 3.933334626177743 5.7317e-08 au
  Orbit Determination Parameters
   # obs. used (total)      177  
   # delay obs. used      6  
   # Doppler obs. used      5  
   data-arc span      4028 days (11.03 yr)  
   first obs. used      2000-12-16  
   last obs. used      2011-12-27  
   planetary ephem.      DE441  
   SB-pert. ephem.      SB441-N16  
   condition code      0  
   norm. resid. RMS      .36127  
   source      ORB  
   producer      Otto Matic  
   solution date      2021-Apr-14 21:01:41  

Additional Information
 Earth MOID = .00697408 au 
 Jupiter MOID = 1.10337 au 
 T_jup = 3.211 
[ hide covariance matrix ]
Orbital Elements at Epoch 2454747.5 (2008-Oct-08.0) TDB
Reference: JPL 53 (heliocentric ecliptic J2000)
 Element Value Uncertainty (1-sigma)   Units 
e .6512596396125108 1.4946e-08  
q .8285222100179872 3.5824e-08 au
tp 2454610.684964134766
(2008-May-24.18496413)
4.8999e-07 TDB
node 85.77209048658534 1.7947e-05 deg
peri 57.92380243530614 2.0243e-05 deg
i 2.789752008331417 5.4919e-06 deg
  Orbit Determination Parameters
   # obs. used (total)      177  
   # delay obs. used      6  
   # Doppler obs. used      5  
   data-arc span      4028 days (11.03 yr)  
   first obs. used      2000-12-16  
   last obs. used      2011-12-27  
   planetary ephem.      DE441  
   SB-pert. ephem.      SB441-N16  
   condition code      0  
   norm. resid. RMS      .36127  
   source      ORB  
   producer      Otto Matic  
   solution date      2021-Apr-14 21:01:41  

Additional Information
 Jupiter MOID = 1.10337 au 
 T_jup = 3.211 
Orbit Covariance (6×6)
  e q tp node peri i
e 2.233844827102781E-16 -5.354287253940508E-16 5.51945492323809E-15 -9.023053037374358E-14 1.678420199919148E-13 -3.986248926846539E-14
q -5.354287253940508E-16 1.283377415522726E-15 -1.324535733272648E-14 2.165595007635291E-13 -4.027108699979778E-13 9.567135705889532E-14
tp 5.51945492323809E-15 -1.324535733272648E-14 2.400860970107683E-13 2.172666418803206E-12 -1.804833632484825E-14 1.880917152773174E-13
node -9.023053037374358E-14 2.165595007635291E-13 2.172666418803206E-12 3.220950297450177E-10 -3.517133275720471E-10 9.68677899970842E-11
peri 1.678420199919148E-13 -4.027108699979778E-13 -1.804833632484825E-14 -3.517133275720471E-10 4.097969079774841E-10 -1.107445905017858E-10
i -3.986248926846539E-14 9.567135705889532E-14 1.880917152773174E-13 9.68677899970842E-11 -1.107445905017858E-10 3.016135705698218E-11

Ephemeris | Orbit Diagram | Orbital Elements | Mission Design | Physical Parameters | Close-Approach Data ]

Physical Parameter Table
Parameter Symbol Value Units Sigma Reference Notes
absolute magnitude H 23.7   n/a MPO264919  
rotation period rot_per 0.6658 h n/a LCDB (Rev. 2020-October); Warner et al., 2009 Result based on less than full coverage, so that the period may be wrong by 30 percent or so.
Published Reference List:
[Pravec, P.; Wolf, M.; Sarounova, L. (2000) http://www.asu.cas.cz/~ppravec/neo.htm]
SMASSII spectral type spec_B Sk   n/a Binzel et al. (2004) Icarus 170, 259-294  

[ hide close-approach data ]
Close-Approach Data   ...sorted by Date/Time (TDB)
Date/Time (TDB) Time Uncertainty
(days_HH:MM)
Body Nominal Distance (au) Minimum Distance (au) Maximum Distance (au) V-relative (km/s) V-infinity (km/s) JD (TDB) Time Uncertainty (minutes) Semi-major axis (km) Semi-minor axis (km) range-LOV angle (deg) N-sigma BP Orbit Ref. Reference Modified
1909-Dec-08 12:13 00:03 Mars 0.0515787387075477 0.0515758196879179 0.0515816794786327 18.6758353772903 18.6755381703863 2418649.008723636 2.74955412555784 1683.40292665181 13.1229591534214 85.0411613975386 585949.081117316 T 53 CATAB v2.0g-lin.ifort 2021-Apr-14 21:01:45 2021-Apr-14 21:01
1910-Apr-16 23:00 00:04 Earth 0.11178371087512 0.111747926292973 0.111819498268947 17.1052500308055 17.1038564822724 2418778.458497276 4.38324641352813 1991.50498013131 12.0959908827165 -26.3601272343754 587922.342805472 T 53 CATAB v2.0g-lin.ifort 2021-Apr-14 21:01:45 2021-Apr-14 21:01
1913-Oct-19 13:56 00:03 Venus 0.118755442112653 0.118746383193819 0.118764501622727 6.99359279196277 6.99097764385627 2420060.080862029 2.8259499240163 615.451684649088 7.48899389854048 -42.8241085287971 1250955.47362597 T 53 CATAB v2.0g-lin.ifort 2021-Apr-14 21:01:45 2021-Apr-14 21:01
1920-Dec-25 10:42 < 00:01 Earth 0.0210636950804117 0.0210600019989899 0.021067388163499 13.1735402976004 13.1639344949416 2422683.945651443 0.705550760885679 184.395915532223 1.06498523853761 2.82626730437419 141658.359061854 T 53 CATAB v2.0g-lin.ifort 2021-Apr-14 21:01:45 2021-Apr-14 21:01
1926-Aug-24 03:53 < 00:01 Jupiter 1.14412211599601 1.1441219161486 1.14412231584349 4.53412439236528 4.36779503539533 2424751.661601613 0.140063214448188 48.2484532061743 10.7867832148101 86.9822813402853 20557830.9386139 T 53 CATAB v2.0g-lin.ifort 2021-Apr-14 21:01:45 2021-Apr-14 21:01
1931-Dec-10 16:49 < 00:01 Earth 0.156177911497505 0.156175515397857 0.156180307597162 18.6880836579143 18.6871707255902 2426686.200554193 0.224646592957241 119.493528775802 1.22956151649119 0.834673811989456 313863.989992085 T 53 CATAB v2.0g-lin.ifort 2021-Apr-14 21:01:45 2021-Apr-14 21:01
1950-Apr-30 01:43 < 00:01 Earth 0.288707235796033 0.288696486074618 0.288717985526442 22.7260598074428 22.7256537061021 2433401.571807155 0.897325006211591 542.043021585211 10.5224821752435 -8.53802686596508 575819.173863384 T 53 CATAB v2.0g-lin.ifort 2021-Apr-14 21:01:45 2021-Apr-14 21:01
1957-Jun-20 10:22 00:02 Venus 0.148874206434603 0.148863258898691 0.148885154056257 8.85337750883947 8.85172979830439 2436009.931844927 1.49476720942534 574.25621458891 7.09179650749061 -18.1384881506304 743946.596272014 T 53 CATAB v2.0g-lin.ifort 2021-Apr-14 21:01:45 2021-Apr-14 21:01
1961-Jan-24 20:03 00:04 Earth 0.143892900662328 0.143887817673655 0.143897983655409 11.5933727702184 11.5917754458819 2437324.335193151 4.21478303940843 256.562426968319 4.48921599289821 -8.92540929681317 683763.460888842 T 53 CATAB v2.0g-lin.ifort 2021-Apr-14 21:01:45 2021-Apr-14 21:01
1964-Jul-03 00:57 < 00:01 Mars 0.096637956061773 0.0966279613196647 0.0966479510864972 17.0104182891443 17.0102441302387 2438579.539787165 0.958275196617062 562.449411749831 10.327214504276 -27.6136681132154 654215.451798472 T 53 CATAB v2.0g-lin.ifort 2021-Apr-14 21:01:45 2021-Apr-14 21:01
1971-Dec-13 07:36 00:01 Earth 0.138811102974241 0.138798587707141 0.138823618241855 17.9056986531615 17.9046266158976 2441298.816644082 1.21448607618698 624.225703689304 1.05300424431295 -1.28724693072174 407784.890188874 T 53 CATAB v2.0g-lin.ifort 2021-Apr-14 21:01:45 2021-Apr-14 21:01
1974-Jan-10 16:41 < 00:01 Jupiter 1.23899918748246 1.23899771182655 1.23900066314014 4.85500614284103 4.71209250486376 2442058.195105236 0.56018142939047 106.358475995537 17.3037172641676 50.9629046320689 5741544.56156925 T 53 CATAB v2.0g-lin.ifort 2021-Apr-14 21:01:45 2021-Apr-14 21:01
1990-May-01 03:02 < 00:01 Earth 0.281608784192371 0.281603649212858 0.281613919173309 22.6713073966238 22.6708900531841 2448012.626465747 0.435012000116273 258.00452702886 10.1492965950773 -7.04940894172969 500973.883870227 T 53 CATAB v2.0g-lin.ifort 2021-Apr-14 21:01:45 2021-Apr-14 21:01
2000-Dec-22 06:54 < 00:01 Earth 0.00494851188779366 0.00494848736846278 0.00494853640714367 14.1889296859293 14.1509308733572 2451900.787793265 0.00293591652329019 1.56247538842312 1.0613369767064 58.0390171624439 636980.815684196 T 53 CATAB v2.0g-lin.ifort 2021-Apr-14 21:01:45 2021-Apr-14 21:01
2000-Dec-22 15:06 < 00:01 Moon 0.00541658020764388 0.00541655557014151 0.00541660484517518 13.9634383534724 13.9630050342411 2451901.129062110 0.00287632548059537 1.58660000879943 0.96314087535159 52.7750164387114 736187.818453535 T 53 CATAB v2.0g-lin.ifort 2021-Apr-14 21:01:45 2021-Apr-14 21:01
2001-May-02 02:19 < 00:01 Mars 0.0977473797302648 0.0977469133534635 0.0977478461078662 17.2739098999748 17.2737403442139 2452031.596352860 0.00884522394048783 27.9745697557222 10.1671584884513 36.6238271408619 959552.780971921 T 53 CATAB v2.0g-lin.ifort 2021-Apr-14 21:01:45 2021-Apr-14 21:01
2009-Dec-30 14:01 < 00:01 Jupiter 1.70988473908354 1.70988369996082 1.70988577820635 7.28597654201506 7.21766705989501 2455196.084041906 0.0609273680616736 59.7336433378223 27.970039085307 -35.6486255094055 3908715.24573365 T 53 CATAB v2.0g-lin.ifort 2021-Apr-14 21:01:45 2021-Apr-14 21:01
2011-Dec-26 05:37 < 00:01 Earth 0.00737331389193112 0.00737330603231709 0.00737332175154682 13.6248138617799 13.5982652152698 2455921.733892249 0.000581135694948072 1.86965979909013 0.390101377382433 88.7168927076724 3065885.00948205 T 53 CATAB v2.0g-lin.ifort 2021-Apr-14 21:01:45 2021-Apr-14 21:01
